Location: Bougoudala
(13.2282°N, 4.9477°W)
Time: 13:31:20
(UTC+00:00)

Orbus 21S - Pass Details

Date: 29 January 2020
Orbit: 295 x 32832 km, 24.5° (Epoch: 24 February)

Event Time Altitude Azimuth Distance (km) Brightness Sun altitude
Rises 19:54:48 0° 231° (SW) 2,031 6.3 -23.2°
Reaches altitude 10° 19:56:07 10° 222° (SW) 1,378 5.1 -23.5°
Enters shadow 19:57:51 38° 183° (S) 793 3.2 -23.9°
